This is the latest recevied weather packets stored in our database for station/object W8CWV-13. If no packets are shown the sender has not sent any weather packets the latest 10 day(s).
| Time | Temp. | Humidity | Pressure | Rain* | Wind** | Luminosity | Snow |
|---|---|---|---|---|---|---|---|
| 1777633785 | 2.78° C | 100% | 1006.6 hPa | - | - | - | - |
| 1777633209 | 2.22° C | 100% | 1006.8 hPa | - | - | - | - |
| 1777632638 | 1.67° C | 100% | 1006.9 hPa | - | - | - | - |
| 1777632070 | 1.67° C | 100% | 1007.1 hPa | - | - | - | - |
| 1777631494 | 1.67° C | 100% | 1007.5 hPa | - | - | - | - |
| 1777630926 | 1.11° C | 100% | 1008 hPa | - | - | - | - |
| 1777630348 | 0.56° C | 100% | 1008.8 hPa | - | - | - | - |
| 1777629777 | 1.11° C | 100% | 1009.2 hPa | - | - | - | - |
| 1777629205 | 1.11° C | 100% | 1010.2 hPa | - | - | - | - |
| 1777628632 | 1.11° C | 100% | 1010.6 hPa | - | - | - | - |
| 1777628058 | 1.11° C | 100% | 1011.5 hPa | - | - | - | - |
| 1777627487 | 1.11° C | 100% | 1012.1 hPa | - | - | - | - |
| 1777626915 | 1.11° C | 100% | 1012.4 hPa | - | - | - | - |
| 1777626345 | 1.67° C | 100% | 1013 hPa | - | - | - | - |
| 1777625772 | 1.67° C | 100% | 1013.7 hPa | - | - | - | - |
| 1777625199 | 1.67° C | 100% | 1014.5 hPa | - | - | - | - |
| 1777624627 | 2.22° C | 100% | 1015.3 hPa | - | - | - | - |
| 1777624057 | 2.78° C | 100% | 1016 hPa | - | - | - | - |
| 1777623483 | 2.22° C | 100% | 1017.7 hPa | - | - | - | - |
| 1777622914 | 2.22° C | 100% | 1019.1 hPa | - | - | - | - |
| 1777622341 | 2.78° C | 100% | 1020.5 hPa | - | - | - | - |
| 1777621772 | 3.33° C | 100% | 1021.3 hPa | - | - | - | - |
| 1777621201 | 3.33° C | 100% | 1022.6 hPa | - | - | - | - |
| 1777620628 | 3.89° C | 100% | 1023.6 hPa | - | - | - | - |
| 1777620053 | 4.44° C | 100% | 1024.6 hPa | - | - | - | - |
* Rain since midnight (hover to see other rain measurements)
** Current wind speed in m/s (hover to see current wind gust speed)